Estación municipal de Monistrol de Calders (Moianès, P.N.de Sant Llorenç del Munt i l'Obac)

Consulta los datos en tiempo real de la estación municipal de Monistrol de Calders





Hora UTC 07:15
Temperatura 21.1 ºC
Humedad 76.0 %
Presión 1019.3 hPa
Pluja 0.0 mm
Velocidad viento 0.0 km/h
Dirección viento ESE

Webcam

Datos diarios 2026-09-05



Hora UTC (invierno +1h; verano +2h)
Temperatura (ºC) Humedad (%) Presión (hPa) Velocidad viento (km/h) Precipitación (mm)
Hora UTC Aire Humedad Presión Vel. Dir. Vel. Max Dir. Intent. máx 5 min.
00:05 20.3 82.0 1018.6 0.0 S 0.0 0.0
00:10 20.3 82.0 1018.6 0.0 SSE 3.2 0.0
00:15 20.2 82.0 1018.7 1.6 ESE 3.2 0.0
00:20 20.1 82.0 1018.6 1.6 SSE 3.2 0.0
00:25 19.9 82.0 1018.6 3.2 ESE 3.2 0.0
00:30 19.9 83.0 1018.6 3.2 S 6.4 0.0
00:35 19.9 83.0 1018.6 3.2 SSE 8.0 0.0
00:40 19.7 83.0 1018.5 4.8 SE 8.0 0.0
00:45 19.6 83.0 1018.5 1.6 SSE 4.8 0.0
00:50 19.5 83.0 1018.5 3.2 SSE 6.4 0.0
00:55 19.4 83.0 1018.5 0.0 SE 4.8 0.0
01:00 19.4 84.0 1018.5 1.6 SE 8.0 0.0
01:05 19.3 84.0 1018.5 4.8 SE 8.0 0.0
01:10 19.3 84.0 1018.5 3.2 SSE 4.8 0.0
01:15 19.2 84.0 1018.6 1.6 S 4.8 0.0
01:20 19.2 84.0 1018.6 1.6 SE 4.8 0.0
01:25 19.1 84.0 1018.5 3.2 S 6.4 0.0
01:30 18.9 84.0 1018.5 1.6 ESE 6.4 0.0
01:35 18.9 84.0 1018.5 3.2 SSE 6.4 0.0
01:40 18.9 84.0 1018.4 0.0 SSE 4.8 0.0
01:45 18.8 84.0 1018.4 0.0 SE 3.2 0.0
01:50 18.7 84.0 1018.4 4.8 SE 4.8 0.0
01:55 18.6 85.0 1018.4 3.2 S 6.4 0.0
02:00 18.6 85.0 1018.4 3.2 SE 6.4 0.0
02:05 18.4 85.0 1018.4 3.2 SSE 4.8 0.0
02:10 18.4 85.0 1018.3 1.6 SE 4.8 0.0
02:15 18.3 85.0 1018.4 4.8 SE 6.4 0.0
02:20 18.3 85.0 1018.3 3.2 S 6.4 0.0
02:25 18.2 85.0 1018.4 1.6 SSE 4.8 0.0
02:30 18.2 85.0 1018.3 1.6 ESE 3.2 0.0
02:35 18.2 85.0 1018.3 3.2 SE 3.2 0.0
02:40 18.1 85.0 1018.3 0.0 SSE 3.2 0.0
02:45 18.0 86.0 1018.3 1.6 ESE 4.8 0.0
02:50 18.0 85.0 1018.2 1.6 ESE 6.4 0.0
02:55 17.9 86.0 1018.3 3.2 SE 6.4 0.0
03:00 17.8 86.0 1018.4 1.6 ESE 4.8 0.0
03:05 17.8 86.0 1018.4 0.0 ESE 4.8 0.0
03:10 17.7 86.0 1018.4 3.2 SE 3.2 0.0
03:15 17.7 86.0 1018.5 3.2 ESE 8.0 0.0
03:20 17.6 86.0 1018.4 1.6 SE 8.0 0.0
03:25 17.6 86.0 1018.5 3.2 SSE 6.4 0.0
03:30 17.6 87.0 1018.5 3.2 SSE 6.4 0.0
03:35 17.6 86.0 1018.4 3.2 SSE 4.8 0.0
03:40 17.4 86.0 1018.5 3.2 ESE 4.8 0.0
03:45 17.4 87.0 1018.5 3.2 SSE 4.8 0.0
03:50 17.5 87.0 1018.5 3.2 ESE 6.4 0.0
03:55 17.4 86.0 1018.4 1.6 ESE 6.4 0.0
04:00 17.4 87.0 1018.5 1.6 SE 4.8 0.0
04:05 17.4 86.0 1018.4 3.2 ESE 4.8 0.0
04:10 17.4 86.0 1018.5 4.8 SE 4.8 0.0
04:15 17.3 86.0 1018.6 3.2 SE 4.8 0.0
04:20 17.3 86.0 1018.5 1.6 SSE 4.8 0.0
04:25 17.2 87.0 1018.6 3.2 SE 4.8 0.0
04:30 17.1 87.0 1018.6 6.4 SE 6.4 0.0
04:35 17.1 87.0 1018.6 4.8 SE 6.4 0.0
04:40 17.1 87.0 1018.7 1.6 SE 6.4 0.0
04:45 17.2 87.0 1018.8 1.6 ESE 6.4 0.0
04:50 17.2 87.0 1018.8 1.6 SE 4.8 0.0
04:55 17.2 87.0 1018.8 0.0 SE 4.8 0.0
05:00 17.2 87.0 1018.8 1.6 SE 4.8 0.0
05:05 17.1 87.0 1018.8 3.2 SSE 4.8 0.0
05:10 17.1 87.0 1018.8 3.2 SE 6.4 0.0
05:15 17.1 87.0 1018.8 3.2 SSE 9.7 0.0
05:20 17.1 87.0 1018.9 1.6 SSE 9.7 0.0
05:25 17.1 87.0 1018.9 1.6 SSE 4.8 0.0
05:30 17.1 87.0 1018.9 3.2 SSE 8.0 0.0
05:35 17.1 87.0 1018.9 0.0 SE 8.0 0.0
05:40 17.1 87.0 1018.9 0.0 ESE 4.8 0.0
05:45 17.1 87.0 1018.9 1.6 SE 4.8 0.0
05:50 17.1 88.0 1018.9 1.6 SE 4.8 0.0
05:55 17.2 88.0 1018.9 1.6 SSE 3.2 0.0
06:00 17.2 88.0 1019.0 1.6 ESE 3.2 0.0
06:05 17.3 87.0 1019.1 3.2 SE 4.8 0.0
06:10 17.3 87.0 1019.1 1.6 SE 4.8 0.0
06:15 17.6 87.0 1019.1 1.6 SE 1.6 0.0
06:20 17.8 86.0 1019.2 1.6 SE 3.2 0.0
06:25 17.9 86.0 1019.2 1.6 SSE 4.8 0.0
06:30 18.1 85.0 1019.2 1.6 SE 4.8 0.0
06:35 18.3 84.0 1019.3 0.0 SE 3.2 0.0
06:40 18.6 83.0 1019.3 0.0 ESE 3.2 0.0
06:45 18.8 83.0 1019.3 3.2 SE 4.8 0.0
06:50 18.9 82.0 1019.3 3.2 SSE 4.8 0.0
06:55 19.3 82.0 1019.3 0.0 SE 4.8 0.0
07:00 19.7 81.0 1019.4 0.0 SE 3.2 0.0
07:05 20.0 80.0 1019.3 0.0 SE 1.6 0.0
07:10 20.7 78.0 1019.3 0.0 ESE 3.2 0.0
07:15 21.1 76.0 1019.3 0.0 ESE 3.2 0.0
Máxima 21.1 88.0 1019.4 6.4 SE 9.7 0.0
Mínima 17.1 76.0 1018.2
Total 0.0